^^
Station Historical Data
Daily Summary for May 15, 2019 Units:  English    Metric   Both
« Previous Day
Next Day »
Daily Weekly Monthly Yearly Custom
  High: Low: Average:
Temperature: 82.5 °F 48.6 °F 65.1 °F
Dew Point: 63.5 °F 37 °F 48 °F
Humidity: 75% 40% 55%
Wind Speed: 31mph 1mph 13.6mph
Wind Gust: 37mph - -
Wind- - South
Pressure: 29.82 in 29.45 in -
Precipitation: 0.1 in    
Historical Graphs
 
 
Tabular Data for May 15, 2019
Time Temperature Dew Point Pressure Wind Wind Speed Wind Gust Humidity Rainfall Rate (Hourly) solar Conditions
00:04 56.1 °F 42.4 °F 29.82 in East 10 mph 14 mph 60% 0 in 0.00 W/m2
00:09 55.9 °F 42.2 °F 29.82 in East 10 mph 15 mph 60% 0 in 0.00 W/m2
00:14 55.5 °F 42.3 °F 29.82 in East 11 mph 15 mph 61% 0 in 0.00 W/m2
00:19 55.2 °F 42 °F 29.82 in East 11 mph 15 mph 61% 0 in 0.00 W/m2
00:24 55 °F 42.2 °F 29.82 in East 11 mph 14 mph 62% 0 in 0.00 W/m2
00:29 54.9 °F 42.1 °F 29.82 in ENE 11 mph 15 mph 62% 0 in 0.00 W/m2
00:34 54.7 °F 42.3 °F 29.82 in ENE 11 mph 15 mph 63% 0 in 0.00 W/m2
00:39 54.4 °F 42.1 °F 29.82 in East 12 mph 15 mph 63% 0 in 0.00 W/m2
00:44 54 °F 42.1 °F 29.82 in East 11 mph 15 mph 64% 0 in 0.00 W/m2
00:49 53.5 °F 42 °F 29.82 in East 11 mph 14 mph 65% 0 in 0.00 W/m2
00:54 53.3 °F 42.2 °F 29.82 in ESE 11 mph 14 mph 66% 0 in 0.00 W/m2
00:59 53.3 °F 42.2 °F 29.82 in East 9 mph 14 mph 66% 0 in 0.00 W/m2
01:04 53.2 °F 42.1 °F 29.82 in ESE 11 mph 14 mph 66% 0 in 0.00 W/m2
01:09 53.3 °F 42.2 °F 29.82 in East 10 mph 15 mph 66% 0 in 0.00 W/m2
01:14 53.7 °F 42.2 °F 29.82 in ESE 9 mph 15 mph 65% 0 in 0.00 W/m2
01:19 54.2 °F 42.3 °F 29.82 in ESE 10 mph 17 mph 64% 0 in 0.00 W/m2
01:24 54.7 °F 41.9 °F 29.82 in East 12 mph 17 mph 62% 0 in 0.00 W/m2
01:29 55 °F 41.8 °F 29.82 in ESE 10 mph 17 mph 61% 0 in 0.00 W/m2
01:34 55.5 °F 41.8 °F 29.82 in ESE 12 mph 17 mph 60% 0 in 0.00 W/m2
01:39 55.7 °F 42 °F 29.82 in East 12 mph 16 mph 60% 0 in 0.00 W/m2
01:44 55.9 °F 41.8 °F 29.82 in ESE 14 mph 18 mph 59% 0 in 0.00 W/m2
01:49 55.9 °F 41.3 °F 29.82 in ESE 11 mph 18 mph 58% 0 in 0.00 W/m2
01:54 55.9 °F 41.3 °F 29.82 in ESE 10 mph 17 mph 58% 0 in 0.00 W/m2
01:59 55.8 °F 41.7 °F 29.82 in ESE 11 mph 18 mph 59% 0 in 0.00 W/m2
02:04 55.6 °F 41.5 °F 29.82 in ESE 11 mph 18 mph 59% 0 in 0.00 W/m2
02:09 55.4 °F 41.3 °F 29.82 in SE 11 mph 16 mph 59% 0 in 0.00 W/m2
02:14 55.1 °F 41.9 °F 29.82 in SE 13 mph 17 mph 61% 0 in 0.00 W/m2
02:19 54.9 °F 41.7 °F 29.82 in ESE 10 mph 17 mph 61% 0 in 0.00 W/m2
02:24 54.6 °F 41.8 °F 29.82 in ESE 10 mph 17 mph 62% 0 in 0.00 W/m2
02:29 54.2 °F 41.9 °F 29.82 in SE 10 mph 17 mph 63% 0 in 0.00 W/m2
02:34 53.9 °F 42 °F 29.81 in ESE 11 mph 17 mph 64% 0 in 0.00 W/m2
02:39 53.5 °F 42 °F 29.81 in SE 9 mph 15 mph 65% 0 in 0.00 W/m2
02:44 53.3 °F 41.8 °F 29.81 in ESE 10 mph 15 mph 65% 0 in 0.00 W/m2
02:49 53.2 °F 41.7 °F 29.81 in ESE 11 mph 15 mph 65% 0 in 0.00 W/m2
02:54 52.8 °F 41.4 °F 29.81 in ESE 10 mph 15 mph 65% 0 in 0.00 W/m2
02:59 52.7 °F 41.3 °F 29.81 in SE 8 mph 13 mph 65% 0 in 0.00 W/m2
03:04 52.6 °F 41.2 °F 29.80 in ESE 9 mph 13 mph 65% 0 in 0.00 W/m2
03:09 52.8 °F 41 °F 29.80 in ESE 13 mph 15 mph 64% 0 in 0.00 W/m2
03:14 53.2 °F 40.9 °F 29.80 in ESE 10 mph 17 mph 63% 0 in 0.00 W/m2
03:19 53.5 °F 40.8 °F 29.81 in SE 12 mph 17 mph 62% 0 in 0.00 W/m2
03:24 53.5 °F 40.8 °F 29.81 in ESE 8 mph 17 mph 62% 0 in 0.00 W/m2
03:29 53.8 °F 40.7 °F 29.81 in ESE 11 mph 17 mph 61% 0 in 0.00 W/m2
03:34 53.9 °F 40.8 °F 29.81 in East 8 mph 15 mph 61% 0 in 0.00 W/m2
03:39 53.8 °F 40.7 °F 29.81 in ESE 8 mph 15 mph 61% 0 in 0.00 W/m2
03:44 53.6 °F 40.5 °F 29.81 in ESE 9 mph 15 mph 61% 0 in 0.00 W/m2
03:49 53.4 °F 40.3 °F 29.81 in East 10 mph 15 mph 61% 0 in 0.00 W/m2
03:54 53.2 °F 40.5 °F 29.81 in ESE 7 mph 16 mph 62% 0 in 0.00 W/m2
03:59 53.1 °F 40.4 °F 29.81 in ESE 10 mph 16 mph 62% 0 in 0.00 W/m2
04:04 52.9 °F 40.2 °F 29.80 in ESE 10 mph 16 mph 62% 0 in 0.00 W/m2
04:09 52.7 °F 40.5 °F 29.81 in ESE 10 mph 16 mph 63% 0 in 0.00 W/m2
04:14 52.3 °F 40.5 °F 29.81 in SE 10 mph 16 mph 64% 0 in 0.00 W/m2
04:19 52 °F 40.2 °F 29.80 in ESE 12 mph 15 mph 64% 0 in 0.00 W/m2
04:24 51.9 °F 40.1 °F 29.80 in ESE 14 mph 17 mph 64% 0 in 0.00 W/m2
04:29 51.9 °F 40.1 °F 29.80 in ESE 12 mph 18 mph 64% 0 in 0.00 W/m2
04:34 51.8 °F 39.6 °F 29.79 in East 11 mph 18 mph 63% 0 in 0.00 W/m2
04:39 51.6 °F 39.8 °F 29.79 in East 10 mph 17 mph 64% 0 in 0.00 W/m2
04:44 51.2 °F 39.4 °F 29.80 in SSE 12 mph 17 mph 64% 0 in 0.00 W/m2
04:49 50.8 °F 39.5 °F 29.80 in SE 13 mph 16 mph 65% 0 in 0.00 W/m2
04:54 50.6 °F 39.3 °F 29.80 in ESE 15 mph 17 mph 65% 0 in 0.00 W/m2
04:59 50.4 °F 39.1 °F 29.79 in East 11 mph 18 mph 65% 0 in 0.00 W/m2
05:04 50.3 °F 39 °F 29.79 in SE 14 mph 18 mph 65% 0 in 0.00 W/m2
05:09 50.1 °F 38.8 °F 29.79 in ESE 14 mph 18 mph 65% 0 in 0.00 W/m2
05:14 50 °F 38.7 °F 29.79 in ESE 11 mph 18 mph 65% 0 in 0.00 W/m2
05:19 49.7 °F 38.4 °F 29.78 in SE 13 mph 17 mph 65% 0 in 0.00 W/m2
05:24 49.5 °F 38.2 °F 29.78 in ESE 13 mph 16 mph 65% 0 in 0.00 W/m2
05:29 49.3 °F 38 °F 29.78 in SE 12 mph 17 mph 65% 0 in 0.00 W/m2
05:34 49 °F 38.1 °F 29.78 in SE 11 mph 17 mph 66% 0 in 0.00 W/m2
05:39 48.8 °F 37.9 °F 29.78 in ESE 9 mph 16 mph 66% 0 in 0.00 W/m2
05:44 48.7 °F 37.8 °F 29.78 in SE 13 mph 16 mph 66% 0 in 0.00 W/m2
05:49 48.6 °F 37.7 °F 29.78 in SE 13 mph 15 mph 66% 0 in 0.00 W/m2
05:54 48.7 °F 37.5 °F 29.78 in ESE 15 mph 17 mph 65% 0 in 0.00 W/m2
05:59 49.1 °F 37.4 °F 29.77 in SE 10 mph 18 mph 64% 0 in 0.00 W/m2
06:04 49.5 °F 37.4 °F 29.77 in ESE 9 mph 18 mph 63% 0 in 0.00 W/m2
06:09 49.6 °F 37.1 °F 29.78 in SE 14 mph 18 mph 62% 0 in 5.00 W/m2
06:14 49.6 °F 37.1 °F 29.77 in ESE 10 mph 18 mph 62% 0 in 7.00 W/m2
06:19 49.7 °F 37.2 °F 29.77 in SE 12 mph 18 mph 62% 0 in 11.00 W/m2
06:24 49.9 °F 37.4 °F 29.77 in ESE 17 mph 18 mph 62% 0 in 12.00 W/m2
06:29 50.1 °F 37.2 °F 29.77 in SE 17 mph 18 mph 61% 0 in 16.00 W/m2
06:34 50.4 °F 37 °F 29.76 in SE 15 mph 20 mph 60% 0 in 21.00 W/m2
06:39 50.5 °F 37.1 °F 29.76 in ESE 10 mph 20 mph 60% 0 in 26.00 W/m2
06:44 50.6 °F 37.2 °F 29.77 in ESE 10 mph 20 mph 60% 0 in 32.00 W/m2
06:49 50.8 °F 37.4 °F 29.76 in SE 13 mph 20 mph 60% 0 in 35.00 W/m2
06:54 50.9 °F 37.5 °F 29.76 in SE 9 mph 16 mph 60% 0 in 39.00 W/m2
06:59 51.1 °F 37.7 °F 29.76 in East 12 mph 16 mph 60% 0 in 42.00 W/m2
07:04 51.4 °F 37.5 °F 29.76 in ESE 13 mph 17 mph 59% 0 in 46.00 W/m2
07:09 51.6 °F 37.3 °F 29.76 in ESE 12 mph 18 mph 58% 0 in 49.00 W/m2
07:14 52.1 °F 37.3 °F 29.76 in SE 12 mph 21 mph 57% 0 in 53.00 W/m2
07:19 52.5 °F 37.2 °F 29.76 in SE 16 mph 21 mph 56% 0 in 58.00 W/m2
07:24 52.9 °F 37.2 °F 29.75 in ESE 14 mph 21 mph 55% 0 in 62.00 W/m2
07:29 53.2 °F 37 °F 29.75 in ESE 17 mph 21 mph 54% 0 in 65.00 W/m2
07:34 53.3 °F 37.5 °F 29.75 in ESE 11 mph 19 mph 55% 0 in 72.00 W/m2
07:39 53.7 °F 37.4 °F 29.75 in SE 14 mph 19 mph 54% 0 in 77.00 W/m2
07:44 54.2 °F 37.4 °F 29.75 in SE 13 mph 19 mph 53% 0 in 158.00 W/m2
07:49 54.6 °F 37.8 °F 29.75 in SE 12 mph 19 mph 53% 0 in 186.00 W/m2
07:54 55.1 °F 38.3 °F 29.75 in SE 9 mph 19 mph 53% 0 in 204.00 W/m2
07:59 55.6 °F 38.2 °F 29.74 in ESE 16 mph 19 mph 52% 0 in 221.00 W/m2
08:04 56.2 °F 38.8 °F 29.75 in SE 13 mph 19 mph 52% 0 in 211.00 W/m2
08:09 56.5 °F 39.1 °F 29.75 in SE 15 mph 20 mph 52% 0 in 216.00 W/m2
08:14 56.9 °F 39.9 °F 29.74 in SE 19 mph 20 mph 53% 0 in 258.00 W/m2
08:19 57.4 °F 39.9 °F 29.74 in SE 10 mph 22 mph 52% 0 in 276.00 W/m2
08:24 57.8 °F 41.3 °F 29.74 in SSE 21 mph 27 mph 54% 0 in 299.00 W/m2
08:29 58.2 °F 41.6 °F 29.74 in SE 14 mph 29 mph 54% 0 in 315.00 W/m2
08:34 58.8 °F 42.2 °F 29.74 in SE 20 mph 29 mph 54% 0 in 329.00 W/m2
08:39 59.1 °F 42.5 °F 29.74 in SE 17 mph 24 mph 54% 0 in 346.00 W/m2
08:44 59.4 °F 42.7 °F 29.73 in ESE 18 mph 24 mph 54% 0 in 360.00 W/m2
08:49 59.7 °F 43.5 °F 29.73 in ESE 14 mph 24 mph 55% 0 in 376.00 W/m2
08:54 60.3 °F 43.6 °F 29.73 in SE 16 mph 24 mph 54% 0 in 390.00 W/m2
08:59 60.7 °F 44.4 °F 29.73 in SE 20 mph 24 mph 55% 0 in 406.00 W/m2
09:04 61.2 °F 44.9 °F 29.73 in SE 22 mph 22 mph 55% 0 in 420.00 W/m2
09:09 61.5 °F 45.2 °F 29.73 in SSE 17 mph 25 mph 55% 0 in 438.00 W/m2
09:14 61.8 °F 45.9 °F 29.72 in SE 21 mph 28 mph 56% 0 in 448.00 W/m2
09:19 62.2 °F 45.8 °F 29.72 in SSE 14 mph 28 mph 55% 0 in 464.00 W/m2
09:24 62.7 °F 46.3 °F 29.72 in SE 14 mph 27 mph 55% 0 in 476.00 W/m2
09:29 63.4 °F 46.5 °F 29.72 in SSE 22 mph 27 mph 54% 0 in 492.00 W/m2
09:34 63.6 °F 46.6 °F 29.72 in SSE 20 mph 28 mph 54% 0 in 510.00 W/m2
09:39 63.6 °F 46.1 °F 29.72 in SE 23 mph 30 mph 53% 0 in 522.00 W/m2
09:44 64.3 °F 46.8 °F 29.71 in SE 18 mph 30 mph 53% 0 in 545.00 W/m2
09:49 65.2 °F 48.1 °F 29.71 in South 17 mph 29 mph 54% 0 in 566.00 W/m2
09:54 65.4 °F 48.3 °F 29.71 in SSE 21 mph 28 mph 54% 0 in 601.00 W/m2
09:59 65.8 °F 47.7 °F 29.71 in SSE 26 mph 28 mph 52% 0 in 455.00 W/m2
10:04 65.4 °F 47.8 °F 29.71 in SSE 21 mph 29 mph 53% 0 in 571.00 W/m2
10:09 65.8 °F 47.7 °F 29.71 in SSE 18 mph 32 mph 52% 0 in 608.00 W/m2
10:14 66.4 °F 47.7 °F 29.70 in SSE 25 mph 33 mph 51% 0 in 538.00 W/m2
10:19 66.5 °F 47.8 °F 29.70 in SSE 19 mph 34 mph 51% 0 in 621.00 W/m2
10:24 67.2 °F 48.5 °F 29.70 in SSE 18 mph 34 mph 51% 0 in 626.00 W/m2
10:29 67.6 °F 48.8 °F 29.69 in SSE 21 mph 30 mph 51% 0 in 663.00 W/m2
10:34 68.1 °F 49.3 °F 29.69 in SSE 18 mph 30 mph 51% 0 in 661.00 W/m2
10:39 68.9 °F 48.9 °F 29.69 in SSE 27 mph 30 mph 49% 0 in 591.00 W/m2
10:44 69 °F 49 °F 29.69 in SSE 26 mph 30 mph 49% 0 in 664.00 W/m2
10:49 69.4 °F 49.9 °F 29.68 in SE 21 mph 30 mph 50% 0 in 661.00 W/m2
10:54 69.7 °F 49.7 °F 29.68 in South 13 mph 28 mph 49% 0 in 671.00 W/m2
10:59 69.6 °F 49.6 °F 29.68 in South 16 mph 32 mph 49% 0 in 729.00 W/m2
11:04 70 °F 50 °F 29.68 in South 22 mph 32 mph 49% 0 in 744.00 W/m2
11:09 70.4 °F 50.3 °F 29.67 in SSW 21 mph 29 mph 49% 0 in 691.00 W/m2
11:14 70.8 °F 51.2 °F 29.67 in South 16 mph 27 mph 50% 0 in 693.00 W/m2
11:19 70.5 °F 49.9 °F 29.67 in SSE 25 mph 28 mph 48% 0 in 675.00 W/m2
11:24 70.2 °F 50.7 °F 29.66 in South 16 mph 31 mph 50% 0 in 652.00 W/m2
11:29 70.3 °F 50.8 °F 29.66 in SE 23 mph 32 mph 50% 0 in 599.00 W/m2
11:34 70.6 °F 51.6 °F 29.66 in SSE 16 mph 33 mph 51% 0 in 642.00 W/m2
11:39 71 °F 51.4 °F 29.65 in SSE 27 mph 33 mph 50% 0 in 684.00 W/m2
11:44 71.4 °F 50.7 °F 29.64 in SSE 22 mph 32 mph 48% 0 in 731.00 W/m2
11:49 71.9 °F 51.7 °F 29.64 in SSE 16 mph 32 mph 49% 0 in 791.00 W/m2
11:54 72.3 °F 51.5 °F 29.63 in South 26 mph 35 mph 48% 0 in 828.00 W/m2
11:59 72.8 °F 52 °F 29.63 in SE 26 mph 35 mph 48% 0 in 860.00 W/m2
12:04 73.2 °F 51.8 °F 29.62 in SSE 12 mph 30 mph 47% 0 in 909.00 W/m2
12:09 73.8 °F 52.3 °F 29.63 in SSE 23 mph 30 mph 47% 0 in 874.00 W/m2
12:14 73.9 °F 52.4 °F 29.62 in SSE 23 mph 30 mph 47% 0 in 898.00 W/m2
12:19 74.6 °F 52.4 °F 29.62 in SSE 26 mph 30 mph 46% 0 in 863.00 W/m2
12:24 74.2 °F 51.5 °F 29.61 in SSE 29 mph 34 mph 45% 0 in 531.00 W/m2
12:29 74.3 °F 52.2 °F 29.61 in South 29 mph 34 mph 46% 0 in 617.00 W/m2
12:34 74.2 °F 52.1 °F 29.61 in SSE 27 mph 34 mph 46% 0 in 805.00 W/m2
12:39 74.7 °F 53.1 °F 29.61 in SSE 25 mph 29 mph 47% 0 in 747.00 W/m2
12:44 74.5 °F 52.9 °F 29.61 in SSE 18 mph 30 mph 47% 0 in 911.00 W/m2
12:49 75.4 °F 52.6 °F 29.61 in South 23 mph 34 mph 45% 0 in 912.00 W/m2
12:54 75.3 °F 52.5 °F 29.60 in SSE 22 mph 34 mph 45% 0 in 925.00 W/m2
12:59 75 °F 52.8 °F 29.60 in South 20 mph 32 mph 46% 0 in 466.00 W/m2
13:04 74.5 °F 52.9 °F 29.60 in South 15 mph 32 mph 47% 0 in 524.00 W/m2
13:09 74.4 °F 52.9 °F 29.59 in South 25 mph 32 mph 47% 0 in 459.00 W/m2
13:14 74 °F 52.5 °F 29.59 in South 17 mph 32 mph 47% 0 in 425.00 W/m2
13:19 73.5 °F 52.6 °F 29.59 in SSE 30 mph 34 mph 48% 0 in 533.00 W/m2
13:24 73.8 °F 52.9 °F 29.58 in SE 24 mph 34 mph 48% 0 in 510.00 W/m2
13:29 74.2 °F 53.2 °F 29.58 in SSE 19 mph 33 mph 48% 0 in 846.00 W/m2
13:34 75.3 °F 53.1 °F 29.58 in South 21 mph 34 mph 46% 0 in 698.00 W/m2
13:39 75 °F 52.8 °F 29.57 in South 25 mph 34 mph 46% 0 in 413.00 W/m2
13:44 74.8 °F 53.8 °F 29.57 in South 21 mph 32 mph 48% 0 in 390.00 W/m2
13:49 74.9 °F 53.9 °F 29.57 in SSE 23 mph 32 mph 48% 0 in 858.00 W/m2
13:54 76.4 °F 54.7 °F 29.56 in SSE 16 mph 33 mph 47% 0 in 976.00 W/m2
13:59 77.7 °F 55.3 °F 29.56 in South 19 mph 33 mph 46% 0 in 937.00 W/m2
14:04 77.8 °F 55.4 °F 29.55 in SSE 12 mph 33 mph 46% 0 in 932.00 W/m2
14:09 78.5 °F 55.4 °F 29.55 in SSE 14 mph 33 mph 45% 0 in 930.00 W/m2
14:14 79.3 °F 56.7 °F 29.55 in South 16 mph 33 mph 46% 0 in 981.00 W/m2
14:19 79.5 °F 56.3 °F 29.55 in South 29 mph 29 mph 45% 0 in 870.00 W/m2
14:24 79 °F 55.8 °F 29.54 in SSE 22 mph 32 mph 45% 0 in 388.00 W/m2
14:29 79.1 °F 55.9 °F 29.53 in SSE 31 mph 37 mph 45% 0 in 928.00 W/m2
14:34 79.5 °F 56.3 °F 29.53 in SSE 27 mph 37 mph 45% 0 in 954.00 W/m2
14:39 79.8 °F 55.9 °F 29.54 in South 21 mph 33 mph 44% 0 in 833.00 W/m2
14:44 80.3 °F 58.2 °F 29.53 in South 20 mph 33 mph 47% 0 in 766.00 W/m2
14:49 80.2 °F 56.3 °F 29.53 in South 22 mph 35 mph 44% 0 in 919.00 W/m2
14:54 80.2 °F 55.7 °F 29.52 in SSE 18 mph 35 mph 43% 0 in 837.00 W/m2
14:59 80.3 °F 56.4 °F 29.52 in South 13 mph 34 mph 44% 0 in 963.00 W/m2
15:04 81.1 °F 57.1 °F 29.52 in South 16 mph 32 mph 44% 0 in 925.00 W/m2
15:09 81.5 °F 56.8 °F 29.52 in SSE 16 mph 28 mph 43% 0 in 911.00 W/m2
15:14 81.6 °F 56.9 °F 29.51 in SSW 23 mph 36 mph 43% 0 in 858.00 W/m2
15:19 81.3 °F 56.7 °F 29.51 in South 22 mph 36 mph 43% 0 in 459.00 W/m2
15:24 80.9 °F 56.9 °F 29.50 in SSE 29 mph 32 mph 44% 0 in 824.00 W/m2
15:29 81.1 °F 57.7 °F 29.50 in South 25 mph 34 mph 45% 0 in 872.00 W/m2
15:34 81.6 °F 57.6 °F 29.50 in South 15 mph 34 mph 44% 0 in 830.00 W/m2
15:39 82.5 °F 57.7 °F 29.50 in South 26 mph 32 mph 43% 0 in 844.00 W/m2
15:44 82.5 °F 57.7 °F 29.50 in SSW 12 mph 35 mph 43% 0 in 810.00 W/m2
15:49 82.3 °F 56.9 °F 29.49 in SSW 18 mph 35 mph 42% 0 in 802.00 W/m2
15:54 82.4 °F 57 °F 29.49 in SSW 13 mph 28 mph 42% 0 in 775.00 W/m2
15:59 82.3 °F 58.2 °F 29.48 in South 20 mph 30 mph 44% 0 in 770.00 W/m2
16:04 82.4 °F 57.7 °F 29.48 in SSW 16 mph 35 mph 43% 0 in 717.00 W/m2
16:09 82.3 °F 57.6 °F 29.48 in SSW 16 mph 35 mph 43% 0 in 489.00 W/m2
16:14 82.3 °F 57.6 °F 29.47 in SSW 17 mph 34 mph 43% 0 in 181.00 W/m2
16:19 81.2 °F 56.6 °F 29.47 in SSW 18 mph 34 mph 43% 0 in 181.00 W/m2
16:24 80.4 °F 56.5 °F 29.46 in South 12 mph 32 mph 44% 0 in 190.00 W/m2
16:29 79.9 °F 56.7 °F 29.46 in SSW 14 mph 31 mph 45% 0 in 239.00 W/m2
16:34 79.8 °F 57.2 °F 29.46 in SSW 11 mph 31 mph 46% 0 in 153.00 W/m2
16:39 79.5 °F 56.3 °F 29.45 in South 15 mph 31 mph 45% 0 in 116.00 W/m2
16:44 79.3 °F 56.7 °F 29.45 in SSW 9 mph 31 mph 46% 0 in 84.00 W/m2
16:49 79.1 °F 56.5 °F 29.45 in South 16 mph 25 mph 46% 0 in 53.00 W/m2
16:54 78.8 °F 58.6 °F 29.46 in SW 10 mph 26 mph 50% 0 in 32.00 W/m2
16:59 76.3 °F 59.9 °F 29.46 in South 9 mph 26 mph 57% 0.03 in 42.00 W/m2
17:04 73.9 °F 60.1 °F 29.46 in SSW 9 mph 24 mph 62% 0.04 in 72.00 W/m2
17:09 71.9 °F 59.5 °F 29.47 in SW 12 mph 22 mph 65% 0.06 in 97.00 W/m2
17:14 70.5 °F 59.8 °F 29.47 in South 8 mph 22 mph 69% 0.08 in 659.00 W/m2
17:19 71 °F 62.3 °F 29.45 in SSE 9 mph 20 mph 74% 0.1 in 626.00 W/m2
17:24 71.9 °F 63.5 °F 29.45 in SSE 9 mph 18 mph 75% 0.1 in 621.00 W/m2
17:29 73.2 °F 62.8 °F 29.45 in South 10 mph 17 mph 70% 0.1 in 601.00 W/m2
17:34 75 °F 61.5 °F 29.45 in SSW 15 mph 23 mph 63% 0.1 in 577.00 W/m2
17:39 75.6 °F 62.6 °F 29.45 in SSW 17 mph 23 mph 64% 0.1 in 132.00 W/m2
17:44 75.4 °F 61.9 °F 29.45 in South 15 mph 22 mph 63% 0.1 in 601.00 W/m2
17:49 75.2 °F 61.7 °F 29.45 in SSW 10 mph 21 mph 63% 0.1 in 555.00 W/m2
17:54 75.1 °F 60.7 °F 29.45 in South 8 mph 21 mph 61% 0.1 in 522.00 W/m2
17:59 75 °F 60.2 °F 29.46 in SE 11 mph 21 mph 60% 0.07 in 517.00 W/m2
18:04 74.9 °F 60.5 °F 29.46 in South 15 mph 22 mph 61% 0.05 in 485.00 W/m2
18:09 74.9 °F 61 °F 29.45 in SSW 13 mph 22 mph 62% 0.04 in 469.00 W/m2
18:14 75.3 °F 60.9 °F 29.46 in SW 11 mph 20 mph 61% 0.01 in 452.00 W/m2
18:19 76.1 °F 61.2 °F 29.46 in SW 8 mph 16 mph 60% 0 in 439.00 W/m2
18:24 76.9 °F 59 °F 29.46 in SW 11 mph 16 mph 54% 0 in 424.00 W/m2
18:29 77.5 °F 59 °F 29.46 in SW 4 mph 14 mph 53% 0 in 418.00 W/m2
18:34 78.2 °F 60.2 °F 29.47 in WSW 8 mph 14 mph 54% 0 in 404.00 W/m2
18:39 78.3 °F 58.1 °F 29.46 in West 10 mph 14 mph 50% 0 in 394.00 W/m2
18:44 78.5 °F 58.3 °F 29.46 in WNW 12 mph 15 mph 50% 0 in 294.00 W/m2
18:49 77.7 °F 54.7 °F 29.47 in NW 31 mph 31 mph 45% 0 in 313.00 W/m2
18:54 76.4 °F 51.6 °F 29.47 in NW 27 mph 32 mph 42% 0 in 163.00 W/m2
18:59 75.8 °F 50.4 °F 29.47 in NW 21 mph 32 mph 41% 0 in 214.00 W/m2
19:04 75.2 °F 50.5 °F 29.48 in WNW 21 mph 31 mph 42% 0 in 134.00 W/m2
19:09 74.6 °F 50 °F 29.48 in WNW 15 mph 31 mph 42% 0 in 113.00 W/m2
19:14 74.2 °F 50.3 °F 29.48 in NW 18 mph 31 mph 43% 0 in 114.00 W/m2
19:19 74 °F 50.1 °F 29.49 in NW 16 mph 24 mph 43% 0 in 128.00 W/m2
19:24 74 °F 49.4 °F 29.49 in WNW 11 mph 24 mph 42% 0 in 116.00 W/m2
19:29 74 °F 49.4 °F 29.49 in NW 16 mph 24 mph 42% 0 in 120.00 W/m2
19:34 74 °F 48.1 °F 29.49 in WNW 16 mph 25 mph 40% 0 in 114.00 W/m2
19:39 73.8 °F 48.6 °F 29.49 in NW 20 mph 25 mph 41% 0 in 109.00 W/m2
19:44 73.8 °F 48.6 °F 29.50 in WNW 15 mph 25 mph 41% 0 in 107.00 W/m2
19:49 73.6 °F 47.8 °F 29.50 in NW 11 mph 28 mph 40% 0 in 97.00 W/m2
19:54 73.3 °F 48.8 °F 29.50 in WNW 17 mph 28 mph 42% 0 in 98.00 W/m2
19:59 73 °F 49.2 °F 29.50 in WNW 12 mph 28 mph 43% 0 in 86.00 W/m2
20:04 72.7 °F 50.1 °F 29.50 in WNW 12 mph 28 mph 45% 0 in 72.00 W/m2
20:09 72.3 °F 49.8 °F 29.51 in WNW 13 mph 20 mph 45% 0 in 63.00 W/m2
20:14 72 °F 50.1 °F 29.51 in West 12 mph 20 mph 46% 0 in 58.00 W/m2
20:19 71.8 °F 49.9 °F 29.51 in WNW 14 mph 20 mph 46% 0 in 58.00 W/m2
20:24 71.6 °F 50.3 °F 29.51 in West 10 mph 18 mph 47% 0 in 51.00 W/m2
20:29 71.3 °F 50 °F 29.51 in WNW 13 mph 18 mph 47% 0 in 44.00 W/m2
20:34 71.1 °F 49.8 °F 29.51 in West 9 mph 18 mph 47% 0 in 37.00 W/m2
20:39 70.8 °F 50.1 °F 29.51 in WNW 8 mph 15 mph 48% 0 in 33.00 W/m2
20:44 70.6 °F 50.5 °F 29.52 in WNW 10 mph 15 mph 49% 0 in 28.00 W/m2
20:49 70 °F 50.5 °F 29.52 in WNW 8 mph 15 mph 50% 0 in 18.00 W/m2
20:54 69.2 °F 50.8 °F 29.52 in WNW 8 mph 11 mph 52% 0 in 12.00 W/m2
20:59 68.7 °F 50.4 °F 29.52 in WNW 7 mph 10 mph 52% 0 in 11.00 W/m2
21:04 68.2 °F 50.9 °F 29.52 in WNW 6 mph 10 mph 54% 0 in 9.00 W/m2
21:09 67.4 °F 50.7 °F 29.52 in West 6 mph 10 mph 55% 0 in 5.00 W/m2
21:14 66.8 °F 50.6 °F 29.52 in West 4 mph 8 mph 56% 0 in 0.00 W/m2
21:19 66.3 °F 50.6 °F 29.52 in West 4 mph 8 mph 57% 0 in 0.00 W/m2
21:24 66.3 °F 50.6 °F 29.52 in West 2 mph 6 mph 57% 0 in 0.00 W/m2
21:29 66.3 °F 50.1 °F 29.52 in West 1 mph 4 mph 56% 0 in 0.00 W/m2
21:34 66.2 °F 50 °F 29.53 in West 1 mph 4 mph 56% 0 in 0.00 W/m2
21:39 66.2 °F 50 °F 29.53 in West 1 mph 4 mph 56% 0 in 0.00 W/m2
21:44 66 °F 50.3 °F 29.53 in West 1 mph 3 mph 57% 0 in 0.00 W/m2
21:49 66.1 °F 49.9 °F 29.53 in West 2 mph 3 mph 56% 0 in 0.00 W/m2
21:54 66.1 °F 49.9 °F 29.53 in West 3 mph 3 mph 56% 0 in 0.00 W/m2
21:59 65.9 °F 49.8 °F 29.53 in West 2 mph 3 mph 56% 0 in 0.00 W/m2
22:04 65.6 °F 50 °F 29.54 in West 4 mph 4 mph 57% 0 in 0.00 W/m2
22:09 65.2 °F 50 °F 29.54 in West 4 mph 4 mph 58% 0 in 0.00 W/m2
22:14 64.9 °F 50.2 °F 29.54 in West 4 mph 6 mph 59% 0 in 0.00 W/m2
22:19 64.6 °F 50.4 °F 29.54 in West 4 mph 6 mph 60% 0 in 0.00 W/m2
22:24 64.4 °F 50.2 °F 29.54 in West 3 mph 6 mph 60% 0 in 0.00 W/m2
22:29 64.1 °F 49.9 °F 29.54 in West 2 mph 6 mph 60% 0 in 0.00 W/m2
22:34 63.8 °F 50.1 °F 29.55 in West 2 mph 6 mph 61% 0 in 0.00 W/m2
22:39 63.6 °F 49.9 °F 29.54 in West 3 mph 6 mph 61% 0 in 0.00 W/m2
22:44 63.3 °F 49.6 °F 29.55 in West 3 mph 4 mph 61% 0 in 0.00 W/m2
22:49 63.2 °F 50 °F 29.55 in West 3 mph 4 mph 62% 0 in 0.00 W/m2
22:54 63.2 °F 50 °F 29.55 in West 3 mph 4 mph 62% 0 in 0.00 W/m2
22:59 63.2 °F 50 °F 29.55 in West 2 mph 4 mph 62% 0 in 0.00 W/m2
23:04 63.4 °F 49.7 °F 29.55 in West 2 mph 4 mph 61% 0 in 0.00 W/m2
23:09 63.6 °F 49.9 °F 29.55 in West 1 mph 3 mph 61% 0 in 0.00 W/m2
23:14 63.9 °F 50.2 °F 29.56 in West 2 mph 3 mph 61% 0 in 0.00 W/m2
23:19 64 °F 49.8 °F 29.56 in WNW 4 mph 6 mph 60% 0 in 0.00 W/m2
23:24 63.9 °F 50.2 °F 29.56 in WNW 4 mph 6 mph 61% 0 in 0.00 W/m2
23:29 63.8 °F 50.1 °F 29.56 in WSW 4 mph 5 mph 61% 0 in 0.00 W/m2
23:34 63.4 °F 49.7 °F 29.56 in WSW 3 mph 5 mph 61% 0 in 0.00 W/m2
23:39 62.9 °F 49.7 °F 29.56 in WSW 2 mph 5 mph 62% 0 in 0.00 W/m2
23:44 62.6 °F 49.8 °F 29.55 in WSW 2 mph 5 mph 63% 0 in 0.00 W/m2
23:49 62.2 °F 49.9 °F 29.56 in WSW 2 mph 5 mph 64% 0 in 0.00 W/m2
23:54 61.8 °F 49.5 °F 29.55 in WSW 2 mph 4 mph 64% 0 in 0.00 W/m2
23:59 61.4 °F 49.5 °F 29.55 in WSW 2 mph 4 mph 65% 0 in 0.00 W/m2
Bismarck, North Dakota, USA
Compliments of Weather Underground - 4 mb